sat.trackr.live / text

‹ back to catalog

STARLINK-3356

NORAD 51133 · 2022-005AF

PAYLOAD ACTIVE UNKNOWN

§ Identity

Operator
Country
US
Launch date
2022-01-19
Launch site
AFETR
Launch vehicle
Mass (kg)
RCS (m²)

Purposes: comms

External: N2YO · Heavens-Above · Gunter

§ Orbital elements

Epoch: 2026-05-25T04:08:07.197792Z

Period
95.44 min
Inclination
53.2130°
Eccentricity
0.0000912
Mean motion
15.08828243 rev/d
Perigee alt
539.1 km
Apogee alt
540.4 km
Semi-major
6,917.9 km
B*
1.8435e-4
RAAN
315.7768°
Arg perigee
97.2974°
Mean anomaly
262.8122°
Rev number
24,027

§ Raw data

STARLINK-33561 51133U 22005AF  26145.17230553  .00002647  00000+0  18435-3 0  99982 51133  53.2130 315.7768 0000912  97.2974 262.8122 15.08828243240275

JSON: /api/v1/satellites/51133 · /tle

For live sub-satellite position, see the globe view (requires WebGL).

§ Visibility from observer

Set your observer location to see the next 7 days of passes ≥ 10°. The values pass through the URL so the page stays shareable.

No JS? Fill the form by hand. The geolocation button needs JavaScript.